[[{"header":{"parameterUnit":"m.s-1","parameterCategory":1,"la1":30.2991,"la2":30.254,"lo1":-89.0895,"lo2":-89.0444,"dy":0.0017,"dx":0.0017,"nx":28,"ny":28,"refTime":"2025-01-31T03:00:00:Z","depth":0,"parameterNumber":2,"parameterNumberName":"U-component_of_WINDS"},"data":[0,0,0,0,0,0,0,0,0,0,0,0,0,0,0,0,0,0,0,0,0,0,0,0,0,0,0,0,0,0,0,0,0,0,0,0,0,0,0,0,0,0,0,0,0,0,0,0,0,0,0,0,0,0,0,0,0,0,-3.2726,-3.2728,0,-3.2834,-3.2836,-3.2837,-3.2849,-3.2848,-3.2846,-3.2845,-3.2959,-3.2963,-3.2967,0,0,0,0,0,0,0,0,0,0,0,0,0,-3.2534,-3.2537,-3.2726,-3.2728,-3.2729,-3.2834,-3.2836,-3.2837,-3.2849,-3.2848,-3.2846,-3.2845,-3.2958,-3.2962,-3.2967,0,0,0,0,0,0,0,0,0,0,0,0,0,-3.2627,-3.2539,-3.2726,-3.2747,-3.275,-3.2834,-3.2836,-3.2838,-3.2849,-3.2848,-3.2846,-3.2844,-3.2956,-3.2962,-3.2968,-3.3039,0,0,-3.2987,-3.2989,0,0,0,0,0,0,0,0,-3.2622,-3.2634,-3.2743,-3.2746,-3.275,-3.2826,-3.281,-3.2905,-3.285,-3.2812,-3.2845,-3.2844,-3.2916,-3.2926,-3.295,-3.3044,-3.3049,-3.2987,-3.2991,-3.2993,-3.2995,0,0,0,0,0,0,0,-3.2616,-3.263,-3.2769,-3.2745,-3.2749,-3.2753,-3.2764,-3.2828,-3.2872,-3.2815,-3.2816,-3.2829,-3.2918,-3.2944,-3.2952,-3.305,-3.2987,-3.2992,-3.2996,-3.2998,-3.3209,-3.3211,0,0,0,0,0,0,-3.2605,-3.2624,-3.2766,-3.2772,-3.268,-3.2758,-3.2771,-3.2803,-3.2871,-3.288,-3.283,-3.2829,-3.2934,-3.2945,-3.2956,-3.3043,-3.2993,-3.2999,-3.3003,-3.3207,-3.3209,-3.3212,0,0,0,0,0,0,-3.2601,-3.2617,-3.2761,-3.2699,-3.2717,-3.2763,-3.28,-3.2806,-3.2832,-3.2883,-3.2891,-3.2848,-3.2933,-3.2948,-3.3018,-3.3047,-3.3002,-3.3007,-3.3205,-3.3208,-3.321,-3.3218,0,0,0,0,0,0,-3.2595,-3.2616,-3.2642,-3.2699,-3.2721,-3.282,-3.2802,-3.281,-3.2842,-3.2842,-3.2902,-3.291,-3.2933,-3.3009,-3.3024,-3.3055,-3.3012,-3.3202,-3.3206,-3.321,-3.3215,-3.3221,-3.3225,0,0,0,0,0,-3.2588,-3.264,-3.2643,-3.266,-3.2754,-3.2822,-3.2834,-3.2859,-3.2845,-3.2872,-3.2905,-3.2908,-3.3042,-3.3016,-3.3033,-3.3066,-3.3201,-3.3205,-3.3209,-3.3213,-3.3219,-3.3225,0,0,0,0,0,0,-3.2586,-3.2648,-3.2652,-3.2724,-3.2767,-3.2823,-3.2858,-3.2865,-3.2914,-3.2912,-3.2941,-3.2955,-3.3024,-3.3053,-3.3022,-3.3139,-3.312,-3.3128,-3.3117,-3.3124,-3.3129,-3.312,-3.3017,0,0,0,0,0,-3.2593,-3.2642,-3.2694,-3.2753,-3.2774,-3.2813,-3.2843,-3.2858,-3.2905,-3.2923,-3.2961,-3.3007,-3.306,-3.3094,-3.3145,-3.322,-3.3233,-3.3252,-3.3257,-3.3261,-3.3267,-3.3309,-3.3318,-3.3226,-3.3226,-3.3226,0,0,-3.261,-3.265,-3.2679,-3.2753,-3.2789,-3.2839,-3.2828,-3.2882,-3.292,-3.2932,-3.3,-3.303,-3.3083,-3.3156,-3.319,-3.3182,-3.3295,-3.3266,-3.3269,-3.3273,-3.3314,-3.3323,-3.3331,-3.3229,-3.3228,-3.3228,0,0,-3.2666,-3.2701,-3.2753,-3.2789,-3.2843,-3.2868,-3.2881,-3.2937,-3.2956,-3.3025,-3.3036,-3.3082,-3.3172,-3.321,-3.324,-3.3312,-3.3317,-3.3328,-3.3354,-3.3395,-3.3402,-3.3409,-3.3434,-3.3443,-3.3335,-3.3335,-3.3335,0,-3.268,-3.2755,-3.278,-3.2833,-3.2866,-3.2879,-3.2933,-3.2967,-3.3035,-3.3058,-3.3048,-3.3162,-3.3199,-3.328,-3.3298,-3.3323,-3.3339,-3.3321,-3.3399,-3.3406,-3.3413,-3.3437,-3.3446,-3.3336,-3.3336,-3.3335,-3.3335,0,-3.277,-3.2822,-3.2858,-3.2922,-3.2959,-3.3013,-3.3047,-3.3082,-3.3095,-3.3122,-3.3192,-3.3237,-3.3298,-3.3319,-3.3332,-3.3403,-3.3397,-3.3393,-3.3374,-3.3422,-3.3445,-3.3455,-3.3337,-3.3337,-3.3336,-3.3336,0,0,-3.2825,-3.2903,-3.2916,-3.2945,-3.3006,-3.3047,-3.3102,-3.3161,-3.319,-3.3237,-3.3284,-3.3361,-3.3358,-3.3393,-3.3411,-3.3447,-3.3501,-3.3439,-3.3441,-3.3448,-3.3582,-3.3583,-3.3593,-3.3505,-3.3507,-3.3509,-3.3577,0,-3.2887,-3.2983,-3.3008,-3.309,-3.3139,-3.3153,-3.3201,-3.3245,-3.3272,-3.3318,-3.3349,-3.3402,-3.3395,-3.3416,-3.3452,-3.3486,-3.3528,-3.3482,-3.3549,-3.3551,-3.3534,-3.3605,-3.3607,-3.3669,-3.3586,-3.3588,-3.3589,0,-3.2972,-3.3019,-3.3106,-3.3161,-3.3182,-3.3224,-3.328,-3.3325,-3.3375,-3.3392,-3.3432,-3.3447,-3.3506,-3.3486,-3.3568,-3.3536,-3.3566,-3.3587,-3.359,-3.3596,-3.3572,-3.3612,-3.369,-3.3698,-3.3604,-3.3602,-3.3601,0,-3.3002,-3.3089,-3.3152,-3.3177,-3.3242,-3.3272,-3.3301,-3.3349,-3.3383,-3.3433,-3.3455,-3.3511,-3.3542,-3.3586,-3.3616,-3.3599,-3.3696,-3.3678,-3.3712,-3.3711,-3.373,-3.3729,-3.3812,-3.3752,-3.3752,-3.3752,-3.3751,0,-3.3068,-3.312,-3.3166,-3.3205,-3.3264,-3.3294,-3.3352,-3.3382,-3.3425,-3.3471,-3.3488,-3.3531,-3.3569,-3.3617,-3.3642,-3.3706,-3.372,-3.3736,-3.3742,-3.3734,-3.3731,-3.3752,-3.3748,-3.3754,-3.3754,-3.3753,-3.3753,0,-3.3112,-3.3144,-3.3214,-3.327,-3.3286,-3.3327,-3.3377,-3.3415,-3.3444,-3.3501,-3.3517,-3.3562,-3.3619,-3.3654,-3.3728,-3.3745,-3.3815,-3.382,-3.3798,-3.38,-3.3832,-3.3828,-3.393,-3.3945,-3.3876,-3.3877,-3.3877,0,-3.3151,-3.3191,-3.3252,-3.3283,-3.3312,-3.3362,-3.3396,-3.3428,-3.3463,-3.3524,-3.3555,-3.3614,-3.3662,-3.3755,-3.3795,-3.3851,-3.3857,-3.3889,-3.3865,-3.3856,-3.3856,-3.3853,-3.3857,-3.3892,-3.3893,-3.3893,-3.3894,0,-3.3216,-3.323,-3.3278,-3.3333,-3.3373,-3.3417,-3.3462,-3.3487,-3.3526,-3.3565,-3.3624,-3.3661,-3.3736,-3.3795,-3.3855,-3.3887,-3.3897,-3.3901,-3.3912,-3.3903,-3.3888,-3.3896,-3.3807,-3.3898,-3.3898,-3.3897,-3.3897,-3.3897,-3.3258,-3.3295,-3.3343,-3.3396,-3.3433,-3.3474,-3.3513,-3.3546,-3.3595,-3.3658,-3.3674,-3.3736,-3.3786,-3.3868,-3.3901,-3.3951,-3.3946,-3.3961,-3.3965,-3.3968,-3.3968,-3.3882,-3.3962,-3.3962,-3.3962,-3.3962,-3.3962,0,-3.3324,-3.3355,-3.3404,-3.3465,-3.3507,-3.3513,-3.3563,-3.3598,-3.3652,-3.3697,-3.3745,-3.3813,-3.387,-3.3914,-3.3973,-3.4004,-3.4011,-3.4019,-3.4016,-3.4023,-3.397,-3.3954,-3.4012,-3.4012,-3.4012,-3.4012,-3.4012,-3.4012,-3.3362,-3.3424,-3.3445,-3.3526,-3.3558,-3.3617,-3.3645,-3.3684,-3.372,-3.3795,-3.3842,-3.387,-3.3916,-3.3978,-3.4031,-3.4043,-3.4064,-3.4071,-3.4083,-3.4032,-3.4027,-3.4021,-3.4007,-3.4075,-3.4075,-3.4132,-3.4133,-3.4133]},{"header":{"parameterUnit":"m.s-1","parameterCategory":1,"la1":30.2991,"la2":30.254,"lo1":-89.0895,"lo2":-89.0444,"dy":0.0017,"dx":0.0017,"nx":28,"ny":28,"refTime":"2025-01-31T03:00:00:Z","depth":0,"parameterNumber":3,"parameterNumberName":"V-component_of_WINDS"},"data":[0,0,0,0,0,0,0,0,0,0,0,0,0,0,0,0,0,0,0,0,0,0,0,0,0,0,0,0,0,0,0,0,0,0,0,0,0,0,0,0,0,0,0,0,0,0,0,0,0,0,0,0,0,0,0,0,0,0,4.1032,4.1032,0,4.1053,4.1054,4.1054,4.1056,4.1056,4.1056,4.1055,4.1076,4.1077,4.1078,0,0,0,0,0,0,0,0,0,0,0,0,0,4.0994,4.0995,4.1032,4.1032,4.1032,4.1053,4.1054,4.1054,4.1056,4.1056,4.1056,4.1055,4.1076,4.1077,4.1078,0,0,0,0,0,0,0,0,0,0,0,0,0,4.1012,4.0995,4.1032,4.1036,4.1037,4.1053,4.1054,4.1054,4.1056,4.1056,4.1056,4.1055,4.1076,4.1077,4.1078,4.1091,0,0,4.1081,4.1082,0,0,0,0,0,0,0,0,4.1011,4.1014,4.1035,4.1036,4.1037,4.1052,4.1048,4.1066,4.1056,4.1049,4.1055,4.1055,4.1068,4.107,4.1075,4.1092,4.1093,4.1082,4.1082,4.1083,4.1083,0,0,0,0,0,0,0,4.101,4.1013,4.104,4.1036,4.1036,4.1037,4.104,4.1051,4.106,4.1049,4.105,4.1052,4.1069,4.1074,4.1075,4.1094,4.1082,4.1083,4.1083,4.1084,4.1126,4.1126,0,0,0,0,0,0,4.1008,4.1012,4.104,4.1041,4.1023,4.1038,4.1041,4.1047,4.106,4.1062,4.1052,4.1052,4.1072,4.1074,4.1076,4.1094,4.1083,4.1084,4.1084,4.1125,4.1126,4.1126,0,0,0,0,0,0,4.1007,4.101,4.1039,4.1027,4.103,4.1039,4.1046,4.1048,4.1053,4.1062,4.1064,4.1056,4.1072,4.1074,4.1088,4.1095,4.1084,4.1085,4.1125,4.1126,4.1126,4.113,0,0,0,0,0,0,4.1006,4.101,4.1015,4.1027,4.1031,4.105,4.1047,4.1048,4.1055,4.1055,4.1066,4.1067,4.1072,4.1087,4.1089,4.1096,4.1086,4.1124,4.1125,4.1126,4.1129,4.113,4.1132,0,0,0,0,0,4.1005,4.1014,4.1015,4.1019,4.1037,4.1051,4.1053,4.1058,4.1055,4.1061,4.1067,4.1067,4.1094,4.1088,4.1091,4.1098,4.1124,4.1125,4.1126,4.1129,4.113,4.1132,0,0,0,0,0,0,4.1002,4.1016,4.1017,4.103,4.104,4.1051,4.1058,4.1059,4.1069,4.1068,4.1074,4.1076,4.1091,4.1096,4.1089,4.1113,4.1109,4.111,4.1109,4.1111,4.1112,4.1111,4.1087,0,0,0,0,0,4.1004,4.1013,4.1025,4.1036,4.104,4.1048,4.1054,4.1058,4.1067,4.1071,4.1078,4.1087,4.1098,4.1105,4.1115,4.113,4.1133,4.1137,4.1138,4.1139,4.1141,4.1151,4.1153,4.113,4.113,4.113,0,0,4.1006,4.1014,4.102,4.1036,4.1043,4.1054,4.1051,4.1062,4.1071,4.1072,4.1086,4.1092,4.1103,4.1118,4.1125,4.1123,4.1148,4.114,4.1141,4.1142,4.1152,4.1155,4.1157,4.113,4.113,4.113,0,0,4.1016,4.1023,4.1034,4.1042,4.1053,4.1059,4.1062,4.1074,4.1078,4.1092,4.1094,4.1104,4.1122,4.113,4.1137,4.1153,4.1154,4.1156,4.1162,4.1173,4.1175,4.1176,4.1184,4.1186,4.1157,4.1157,4.1157,0,4.1017,4.1033,4.1039,4.1051,4.1058,4.1061,4.1073,4.108,4.1094,4.11,4.1097,4.1121,4.1128,4.1147,4.1151,4.1155,4.116,4.1154,4.1174,4.1176,4.1177,4.1184,4.1187,4.1157,4.1157,4.1157,4.1157,0,4.1035,4.1046,4.1054,4.1069,4.1077,4.1089,4.1097,4.1105,4.1108,4.1114,4.113,4.1139,4.1152,4.1156,4.1159,4.1176,4.1174,4.1173,4.1168,4.118,4.1187,4.1189,4.1158,4.1158,4.1158,4.1157,0,0,4.1042,4.1062,4.1065,4.1073,4.1087,4.1096,4.1109,4.1123,4.113,4.114,4.1152,4.1168,4.1167,4.1175,4.1178,4.1187,4.1202,4.1185,4.1185,4.1189,4.1223,4.1225,4.1228,4.1202,4.1203,4.1203,4.1223,0,4.1055,4.1077,4.1084,4.1103,4.1115,4.1119,4.1131,4.1141,4.1148,4.1159,4.1166,4.1178,4.1176,4.1181,4.119,4.1198,4.1209,4.1196,4.1214,4.1214,4.1212,4.1231,4.1232,4.125,4.1225,4.1225,4.1226,0,4.1071,4.1084,4.1104,4.112,4.1125,4.1135,4.1149,4.116,4.1172,4.1177,4.1187,4.119,4.1204,4.1199,4.122,4.1211,4.1219,4.1224,4.1225,4.1227,4.1221,4.1235,4.1256,4.1259,4.123,4.1229,4.1229,0,4.1077,4.1098,4.1114,4.112,4.1138,4.1145,4.1153,4.1166,4.1174,4.1187,4.1193,4.1207,4.1214,4.1225,4.1233,4.1228,4.1254,4.1248,4.1259,4.1259,4.1264,4.1264,4.1288,4.1267,4.1267,4.1267,4.1267,0,4.109,4.1103,4.1117,4.1127,4.1142,4.115,4.1165,4.1173,4.1185,4.1197,4.1201,4.1212,4.1221,4.1234,4.124,4.1258,4.1261,4.1265,4.1267,4.1266,4.1265,4.1271,4.1271,4.1268,4.1268,4.1268,4.1268,0,4.1098,4.1108,4.1126,4.1142,4.1146,4.1157,4.1171,4.1182,4.1189,4.1205,4.1209,4.1221,4.1237,4.1246,4.1264,4.1269,4.1289,4.1289,4.1285,4.1286,4.1296,4.1296,4.1325,4.133,4.1306,4.1306,4.1306,0,4.1106,4.1116,4.1135,4.1143,4.1152,4.1165,4.1175,4.1184,4.1194,4.1211,4.122,4.1236,4.1249,4.1274,4.1285,4.13,4.1302,4.1311,4.1304,4.1303,4.1304,4.1304,4.1306,4.1313,4.1313,4.1313,4.1313,0,4.112,4.1125,4.1139,4.1155,4.1167,4.118,4.1192,4.12,4.1211,4.1222,4.1239,4.125,4.1271,4.1287,4.1304,4.1312,4.1315,4.1316,4.1319,4.1318,4.1316,4.1319,4.1289,4.1315,4.1315,4.1314,4.1314,4.1314,4.1129,4.1139,4.1155,4.1171,4.1182,4.1195,4.1206,4.1216,4.123,4.1249,4.1253,4.1272,4.1286,4.1309,4.1319,4.1333,4.1332,4.1336,4.1338,4.1339,4.134,4.1313,4.1336,4.1336,4.1336,4.1336,4.1336,0,4.1144,4.1155,4.117,4.1189,4.1202,4.1204,4.122,4.123,4.1247,4.126,4.1274,4.1295,4.1312,4.1325,4.1342,4.1352,4.1354,4.1356,4.1356,4.1359,4.134,4.1336,4.1355,4.1355,4.1355,4.1355,4.1355,4.1355,4.1154,4.1172,4.118,4.1205,4.1215,4.1234,4.1243,4.1255,4.1267,4.129,4.1304,4.1313,4.1327,4.1346,4.1363,4.1366,4.1373,4.1375,4.1379,4.1361,4.1359,4.1358,4.1354,4.1376,4.1377,4.1397,4.1397,4.1397]}]]